Weather History for Colby, KS

Change the Weather History Date:

Wednesday, April 2, 2014

  Actual Average (KGLD) Record (KGLD)
Temperature  
Mean Temperature 42 °F 45 °F  
Max Temperature 53 °F 60 °F 86 °F (1996)
Min Temperature 32 °F 31 °F 0 °F (1936)
Degree Days  
Heating Degree Days 22 20  
Month to date heating degree days 40  
Since 1 July heating degree days 5215  
Cooling Degree Days 0 0  
Month to date cooling degree days 0  
Year to date cooling degree days 0  
Moisture  
Dew Point 31 °F    
Average Humidity 72    
Maximum Humidity 93    
Minimum Humidity 51    
Precipitation  
Precipitation 0.00 in 0.04 in 0.75 in (1957)
Month to date precipitation 0.08  
Year to date precipitation 2.02  
Snow  
Snow 0.00 in 0.30 in - ()
Month to date snowfall 0.5  
Since 1 July snowfall 31.3  
Snow Depth -    
Sea Level Pressure  
Sea Level Pressure 29.78 in    
Wind  
Wind Speed 14 mph (ENE)    
Max Wind Speed 20 mph    
Max Gust Speed 25 mph    
Visibility 10 miles    
Events      
T = Trace of Precipitation, MM = Missing Value Source: NWS Daily Summary

Daily Weather History Graph

Daily Weather History Graph

Search for Another Location

Airport:

Trip Planner

Search our weather history database for the weather conditions in past years. The results will help you decide how hot, cold, wet, or windy it might be!

Date:

Astronomy

Apr. 02, 2014 Rise Set
Actual Time 7:26 AM CDT 8:09 PM CDT
Civil Twilight 6:59 AM CDT 8:36 PM CDT
Nautical Twilight 6:27 AM CDT 9:08 PM CDT
Astronomical Twilight 5:54 AM CDT 9:41 PM CDT
Moon 9:13 AM CDT (4/2) 11:33 PM CDT (4/2)
Length of Visible Light 13h 36m
Length of Day
12h 42m
Waxing Crescent, 10% of the Moon is Illuminated
Apr 2
Waxing Crescent
Apr 7
First Quarter
Apr 15
Full
Apr 22
Last Quarter
Apr 29
New

Hourly Weather History & Observations

Time (CDT) Temp. Windchill Dew Point Humidity Pressure Visibility Wind Dir Wind Speed Gust Speed Precip Events Conditions
12:10 AM 35.6 °F 25.9 °F 28.4 °F 75% 29.86 in 10.0 mi East 16.1 mph - N/A   Clear
12:30 AM 35.6 °F 25.9 °F 28.4 °F 75% 29.85 in 10.0 mi East 16.1 mph - N/A   Clear
12:50 AM 35.6 °F 25.9 °F 28.4 °F 75% 29.84 in 10.0 mi East 16.1 mph - N/A   Clear
1:10 AM 33.8 °F 23.9 °F 28.4 °F 81% 29.84 in 10.0 mi East 15.0 mph - N/A   Clear
1:30 AM 33.8 °F 23.5 °F 28.4 °F 81% 29.84 in 10.0 mi East 16.1 mph - N/A   Clear
1:50 AM 33.8 °F 23.5 °F 28.4 °F 81% 29.84 in 10.0 mi East 16.1 mph 21.9 mph N/A   Clear
2:10 AM 33.8 °F 23.2 °F 28.4 °F 81% 29.84 in 10.0 mi East 17.3 mph - N/A   Clear
2:30 AM 32.0 °F 21.2 °F 28.4 °F 87% 29.84 in 10.0 mi East 16.1 mph - N/A   Clear
2:50 AM 32.0 °F 21.6 °F 28.4 °F 87% 29.84 in 10.0 mi East 15.0 mph - N/A   Clear
3:10 AM 32.0 °F 22.1 °F 26.6 °F 80% 29.84 in 10.0 mi East 13.8 mph - N/A   Clear
3:30 AM 32.0 °F 22.5 °F 26.6 °F 80% 29.83 in 10.0 mi East 12.7 mph - N/A   Clear
3:50 AM 32.0 °F 23.0 °F 28.4 °F 87% 29.84 in 10.0 mi East 11.5 mph - N/A   Mostly Cloudy
4:10 AM 33.8 °F 24.8 °F 28.4 °F 81% 29.84 in 10.0 mi East 12.7 mph 17.3 mph N/A   Overcast
4:30 AM 33.8 °F 27.0 °F 28.4 °F 81% 29.84 in 10.0 mi East 8.1 mph 11.5 mph N/A   Overcast
4:50 AM 32.0 °F 23.6 °F 26.6 °F 80% 29.84 in 10.0 mi East 10.4 mph - N/A   Mostly Cloudy
5:10 AM 33.8 °F 25.3 °F 28.4 °F 81% 29.84 in 10.0 mi East 11.5 mph - N/A   Overcast
5:30 AM 33.8 °F 25.3 °F 28.4 °F 81% 29.83 in 10.0 mi East 11.5 mph - N/A   Overcast
5:50 AM 33.8 °F 24.3 °F 28.4 °F 81% 29.83 in 10.0 mi East 13.8 mph - N/A   Overcast
6:10 AM 33.8 °F 24.8 °F 28.4 °F 81% 29.82 in 10.0 mi ENE 12.7 mph - N/A   Overcast
7:30 AM 33.8 °F 24.8 °F 26.6 °F 75% 29.82 in 10.0 mi ENE 12.7 mph - N/A   Overcast
7:50 AM 33.8 °F 24.8 °F 26.6 °F 75% 29.82 in 10.0 mi ENE 12.7 mph - N/A   Overcast
8:10 AM 33.8 °F 25.3 °F 26.6 °F 75% 29.82 in 10.0 mi ENE 11.5 mph - N/A   Overcast
8:30 AM 33.8 °F 24.3 °F 26.6 °F 75% 29.82 in 10.0 mi ENE 13.8 mph - N/A   Overcast
8:50 AM 33.8 °F 24.3 °F 26.6 °F 75% 29.81 in 10.0 mi East 13.8 mph - N/A   Overcast
9:10 AM 35.6 °F 26.6 °F 28.4 °F 75% 29.81 in 10.0 mi ENE 13.8 mph - N/A   Overcast
9:30 AM 35.6 °F 26.2 °F 28.4 °F 75% 29.81 in 10.0 mi ENE 15.0 mph - N/A   Overcast
9:50 AM 35.6 °F 26.6 °F 28.4 °F 75% 29.81 in 10.0 mi ENE 13.8 mph - N/A   Overcast
10:10 AM 35.6 °F 26.6 °F 30.2 °F 81% 29.81 in 10.0 mi East 13.8 mph - N/A   Overcast
10:30 AM 37.4 °F 29.3 °F 30.2 °F 75% 29.82 in 10.0 mi East 12.7 mph - N/A   Overcast
10:50 AM 37.4 °F 29.8 °F 30.2 °F 75% 29.82 in 10.0 mi East 11.5 mph - N/A   Overcast
11:30 AM 39.2 °F 32.0 °F 32.0 °F 75% 29.81 in 10.0 mi East 11.5 mph 16.1 mph N/A   Overcast
11:50 AM 41.0 °F 33.5 °F 32.0 °F 70% 29.80 in 10.0 mi East 13.8 mph 18.4 mph N/A   Overcast
12:10 PM 41.0 °F 33.9 °F 32.0 °F 70% 29.80 in 10.0 mi East 12.7 mph 17.3 mph N/A   Overcast
12:30 PM 42.8 °F 37.5 °F 32.0 °F 66% 29.80 in 10.0 mi East 9.2 mph 16.1 mph N/A   Overcast
12:50 PM 42.8 °F 37.0 °F 32.0 °F 66% 29.78 in 10.0 mi ESE 10.4 mph - N/A   Overcast
1:10 PM 44.6 °F 40.7 °F 32.0 °F 61% 29.77 in 10.0 mi East 6.9 mph - N/A   Overcast
1:30 PM 46.4 °F 41.9 °F 33.8 °F 62% 29.76 in 10.0 mi East 9.2 mph - N/A   Overcast
1:50 PM 46.4 °F 44.3 °F 33.8 °F 62% 29.76 in 10.0 mi East 4.6 mph - N/A   Scattered Clouds
2:10 PM 46.4 °F 43.5 °F 33.8 °F 62% 29.76 in 10.0 mi ESE 5.8 mph - N/A   Mostly Cloudy
2:30 PM 50.0 °F - 35.6 °F 58% 29.76 in 10.0 mi East 6.9 mph - N/A   Scattered Clouds
2:50 PM 50.0 °F - 35.6 °F 58% 29.75 in 10.0 mi East 8.1 mph - N/A   Scattered Clouds
3:10 PM 50.0 °F - 35.6 °F 58% 29.75 in 10.0 mi ENE 5.8 mph - N/A   Clear
3:30 PM 51.8 °F - 35.6 °F 54% 29.74 in 10.0 mi NE 8.1 mph - N/A   Clear
3:50 PM 51.8 °F - 35.6 °F 54% 29.73 in 10.0 mi East 10.4 mph - N/A   Clear
4:10 PM 53.6 °F - 35.6 °F 51% 29.71 in 10.0 mi East 8.1 mph 18.4 mph N/A   Clear
4:30 PM 53.6 °F - 35.6 °F 51% 29.71 in 10.0 mi East 11.5 mph 17.3 mph N/A   Clear
5:10 PM 53.6 °F - 35.6 °F 51% 29.70 in 10.0 mi ENE 13.8 mph 17.3 mph N/A   Clear
5:30 PM 53.6 °F - 35.6 °F 51% 29.70 in 10.0 mi ENE 15.0 mph 23.0 mph N/A   Clear
5:50 PM 53.6 °F - 35.6 °F 51% 29.70 in 10.0 mi NE 17.3 mph 25.3 mph N/A   Clear
6:10 PM 51.8 °F - 35.6 °F 54% 29.69 in 10.0 mi NE 18.4 mph 21.9 mph N/A   Clear
6:30 PM 50.0 °F - 35.6 °F 58% 29.69 in 10.0 mi ENE 16.1 mph 23.0 mph N/A   Clear
6:50 PM 50.0 °F - 35.6 °F 58% 29.69 in 10.0 mi NE 18.4 mph - N/A   Clear
7:10 PM 48.2 °F - 35.6 °F 62% 29.68 in 10.0 mi NE 19.6 mph - N/A   Clear
7:30 PM 46.4 °F 39.2 °F 33.8 °F 62% 29.68 in 10.0 mi NE 18.4 mph 23.0 mph N/A   Clear
7:50 PM 44.6 °F 36.6 °F 33.8 °F 66% 29.68 in 10.0 mi NE 19.6 mph - N/A   Clear
8:10 PM 44.6 °F 37.4 °F 33.8 °F 66% 29.70 in 10.0 mi NE 16.1 mph - N/A   Clear
8:30 PM 42.8 °F 35.1 °F 33.8 °F 70% 29.71 in 10.0 mi NE 16.1 mph - N/A   Clear
8:50 PM 41.0 °F 33.1 °F 33.8 °F 76% 29.71 in 10.0 mi NE 15.0 mph - N/A   Clear
9:10 PM 41.0 °F 33.9 °F 32.0 °F 70% 29.73 in 10.0 mi NNE 12.7 mph - N/A   Clear
9:30 PM 37.4 °F 27.8 °F 32.0 °F 81% 29.74 in 10.0 mi NNE 17.3 mph 20.7 mph N/A   Clear
9:50 PM 37.4 °F 28.2 °F 32.0 °F 81% 29.74 in 10.0 mi NNE 16.1 mph - N/A   Clear
10:10 PM 35.6 °F 25.9 °F 32.0 °F 87% 29.74 in 10.0 mi NNE 16.1 mph - N/A   Clear
10:50 PM 35.6 °F 25.9 °F 33.8 °F 93% 29.76 in 7.0 mi NNE 16.1 mph 23.0 mph N/A   Clear
11:10 PM 35.6 °F 26.2 °F 33.8 °F 93% 29.76 in 7.0 mi NNE 15.0 mph - N/A   Mostly Cloudy
11:30 PM 35.6 °F 26.6 °F 33.8 °F 93% 29.76 in 7.0 mi North 13.8 mph 25.3 mph N/A   Overcast
11:50 PM 35.6 °F 25.9 °F 33.8 °F 93% 29.77 in 7.0 mi North 16.1 mph - N/A   Overcast